[[{"header":{"parameterUnit":"m.s-1","parameterCategory":1,"la1":30.2991,"la2":30.254,"lo1":-89.0895,"lo2":-89.0444,"dy":0.0017,"dx":0.0017,"nx":28,"ny":28,"refTime":"2023-08-03T21:00:00:Z","depth":0,"parameterNumber":2,"parameterNumberName":"U-component_of_WINDS"},"data":[0,0,0,0,0,0,0,0,0,0,0,0,0,0,0,0,0,0,0,0,0,0,0,0,0,0,0,0,0,0,0,0,0,0,0,0,0,0,0,0,0,0,0,0,0,0,0,0,0,0,0,0,0,0,0,0,0,0,4.8109,4.8111,0,4.827,4.8272,4.8273,4.8234,4.8231,4.8228,4.8225,4.8392,4.8399,4.8406,0,0,0,0,0,0,0,0,0,0,0,0,0,4.7771,4.7777,4.8109,4.8111,4.8113,4.8269,4.8272,4.8274,4.8235,4.8231,4.8227,4.8224,4.839,4.8398,4.8407,0,0,0,0,0,0,0,0,0,0,0,0,0,4.7923,4.7779,4.8109,4.8112,4.8114,4.8269,4.8272,4.8274,4.8236,4.8231,4.8226,4.8222,4.8387,4.8397,4.8408,4.857,0,0,4.8442,4.8447,0,0,0,0,0,0,0,0,4.7915,4.7936,4.811,4.8112,4.8115,4.8227,4.8213,4.8374,4.8237,4.819,4.8225,4.822,4.8341,4.8356,4.8396,4.8578,4.8585,4.8443,4.845,4.8454,4.8457,0,0,0,0,0,0,0,4.7904,4.7928,4.8173,4.8112,4.8115,4.8107,4.8123,4.8244,4.829,4.8193,4.8191,4.821,4.8342,4.8385,4.84,4.8587,4.8443,4.8452,4.8459,4.8463,4.8911,4.8916,0,0,0,0,0,0,4.7891,4.792,4.8167,4.8177,4.8001,4.8117,4.8135,4.8196,4.8288,4.8298,4.8214,4.8208,4.8369,4.8387,4.8405,4.8602,4.8454,4.8465,4.8471,4.8906,4.8912,4.8918,0,0,0,0,0,0,4.7884,4.7913,4.8161,4.8048,4.8079,4.8127,4.8196,4.8201,4.8245,4.8304,4.8312,4.8251,4.8366,4.839,4.8529,4.8607,4.847,4.848,4.89,4.8908,4.8915,4.8995,0,0,0,0,0,0,4.7874,4.7911,4.7972,4.805,4.8085,4.8282,4.8201,4.8208,4.8264,4.8258,4.834,4.8349,4.8364,4.8513,4.854,4.8619,4.8488,4.8893,4.8903,4.8913,4.8985,4.9004,4.9021,0,0,0,0,0,4.7862,4.7989,4.7976,4.8006,4.8163,4.8286,4.8307,4.832,4.8271,4.8333,4.8371,4.8347,4.8594,4.8528,4.8558,4.8642,4.8888,4.89,4.8912,4.8977,4.9001,4.902,0,0,0,0,0,0,4.792,4.7999,4.7985,4.814,4.8207,4.8279,4.8359,4.8344,4.8427,4.8417,4.8431,4.845,4.8593,4.8631,4.8556,4.8804,4.8734,4.8752,4.8773,4.8796,4.8813,4.8801,4.8497,0,0,0,0,0,4.795,4.8043,4.8108,4.8238,4.8272,4.831,4.8364,4.8369,4.8439,4.8467,4.8515,4.8584,4.8678,4.8739,4.8828,4.8991,4.9009,4.9063,4.9081,4.9095,4.9111,4.9201,4.9226,4.8957,4.8957,4.8957,0,0,4.8015,4.8069,4.8127,4.8251,4.8303,4.84,4.8334,4.8439,4.8511,4.8483,4.8618,4.8656,4.8734,4.8886,4.8956,4.8922,4.9189,4.911,4.9121,4.9129,4.9216,4.9241,4.9264,4.8965,4.8963,4.8962,0,0,4.8181,4.8232,4.8346,4.84,4.848,4.8504,4.8532,4.8607,4.8631,4.8766,4.8747,4.8834,4.8994,4.9051,4.9101,4.929,4.9272,4.9319,4.9411,4.9499,4.952,4.9539,4.9607,4.9632,4.9334,4.9335,4.9335,0,4.8252,4.8396,4.8407,4.8515,4.857,4.8549,4.8666,4.8717,4.8822,4.8862,4.8823,4.9024,4.9075,4.9241,4.9287,4.9328,4.936,4.931,4.9516,4.9535,4.9553,4.9618,4.9644,4.934,4.9339,4.9339,4.9338,0,4.8479,4.858,4.8663,4.8764,4.8829,4.8941,4.897,4.9034,4.9034,4.9063,4.9201,4.9262,4.9363,4.9403,4.9403,4.957,4.9546,4.9512,4.9442,4.9583,4.9645,4.967,4.9348,4.9346,4.9344,4.9343,0,0,4.8687,4.8793,4.8824,4.887,4.8956,4.9035,4.9146,4.9244,4.93,4.9373,4.9468,4.9604,4.9572,4.9629,4.9636,4.9713,4.986,4.9669,4.9671,4.9703,5.0048,5.0074,5.0103,4.9848,4.9853,4.9857,5.0042,0,4.8862,4.9057,4.9071,4.9247,4.9341,4.9322,4.9419,4.9483,4.9513,4.9598,4.9631,4.9728,4.9678,4.9713,4.9788,4.9826,4.993,4.9813,4.9937,4.9942,4.9919,5.0135,5.0163,5.0334,5.0066,5.007,5.0073,0,4.9093,4.9172,4.9358,4.9432,4.9472,4.9559,4.9651,4.9732,4.9804,4.9821,4.9885,4.9881,4.9996,4.9922,5.0082,5.0002,5.0054,5.008,5.0087,5.01,5.0016,5.0154,5.0389,5.0415,5.0111,5.0108,5.0105,0,4.9227,4.9381,4.9512,4.9552,4.9641,4.9703,4.9743,4.9811,4.987,4.995,4.9989,5.0082,5.0133,5.0206,5.0228,5.0172,5.0388,5.0315,5.0406,5.0405,5.0452,5.0449,5.07,5.0484,5.0484,5.0484,5.0483,0,4.9421,4.9536,4.9573,4.9654,4.9783,4.9797,4.9924,4.9961,5.0022,5.011,5.01,5.0183,5.0207,5.0295,5.0313,5.0443,5.0466,5.0483,5.0487,5.0485,5.0483,5.0519,5.0508,5.049,5.0489,5.0488,5.0486,0,4.9593,4.9623,4.9765,4.9837,4.9859,4.995,5.0013,5.0091,5.0119,5.0231,5.0259,5.0304,5.0407,5.0436,5.056,5.0572,5.0725,5.0717,5.07,5.07,5.0789,5.0781,5.1073,5.1112,5.087,5.0873,5.0875,0,4.9716,4.9804,4.9886,4.9944,4.9987,5.0081,5.014,5.0159,5.0221,5.0311,5.0379,5.0481,5.0563,5.0729,5.0773,5.0868,5.0863,5.0958,5.0877,5.0872,5.0865,5.086,5.0869,5.0974,5.0977,5.0979,5.098,0,4.9931,4.9942,5.0027,5.012,5.0191,5.0264,5.0334,5.0383,5.0411,5.0483,5.0587,5.0651,5.0778,5.0879,5.0975,5.1017,5.1005,5.1006,5.1032,5.1031,5.1018,5.1027,5.0743,5.0999,5.0997,5.0996,5.0995,5.0994,5.0083,5.0161,5.0231,5.0327,5.0382,5.0448,5.0525,5.0563,5.065,5.0754,5.076,5.0874,5.0945,5.1073,5.1121,5.1211,5.1183,5.122,5.123,5.1239,5.1247,5.1003,5.1228,5.1228,5.1227,5.1227,5.1227,0,5.0299,5.0343,5.0431,5.053,5.0606,5.0586,5.0663,5.0728,5.0829,5.0896,5.0977,5.1098,5.1196,5.1248,5.1346,5.1409,5.1405,5.1434,5.143,5.144,5.1266,5.1234,5.1435,5.1435,5.1435,5.1435,5.1435,5.1435,5.042,5.055,5.0569,5.0726,5.0769,5.0881,5.0926,5.0988,5.1041,5.1177,5.1258,5.1291,5.1353,5.1455,5.1545,5.1558,5.1595,5.1627,5.1637,5.1473,5.1452,5.1432,5.1402,5.1635,5.1635,5.1803,5.1804,5.1806]},{"header":{"parameterUnit":"m.s-1","parameterCategory":1,"la1":30.2991,"la2":30.254,"lo1":-89.0895,"lo2":-89.0444,"dy":0.0017,"dx":0.0017,"nx":28,"ny":28,"refTime":"2023-08-03T21:00:00:Z","depth":0,"parameterNumber":3,"parameterNumberName":"V-component_of_WINDS"},"data":[0,0,0,0,0,0,0,0,0,0,0,0,0,0,0,0,0,0,0,0,0,0,0,0,0,0,0,0,0,0,0,0,0,0,0,0,0,0,0,0,0,0,0,0,0,0,0,0,0,0,0,0,0,0,0,0,0,0,-1.2264,-1.2264,0,-1.2298,-1.2298,-1.2299,-1.2302,-1.2301,-1.2301,-1.2301,-1.2335,-1.2337,-1.2338,0,0,0,0,0,0,0,0,0,0,0,0,0,-1.2203,-1.2204,-1.2264,-1.2264,-1.2265,-1.2298,-1.2298,-1.2299,-1.2302,-1.2301,-1.2301,-1.2301,-1.2335,-1.2337,-1.2338,0,0,0,0,0,0,0,0,0,0,0,0,0,-1.2233,-1.2205,-1.2264,-1.227,-1.2271,-1.2298,-1.2298,-1.2299,-1.2302,-1.2301,-1.2301,-1.23,-1.2335,-1.2336,-1.2338,-1.2361,0,0,-1.2344,-1.2345,0,0,0,0,0,0,0,0,-1.2231,-1.2235,-1.2269,-1.227,-1.2271,-1.2295,-1.229,-1.232,-1.2302,-1.229,-1.2301,-1.23,-1.2322,-1.2325,-1.2333,-1.2362,-1.2364,-1.2344,-1.2345,-1.2346,-1.2347,0,0,0,0,0,0,0,-1.2229,-1.2233,-1.2277,-1.227,-1.2271,-1.2272,-1.2276,-1.2295,-1.2309,-1.2291,-1.2292,-1.2296,-1.2323,-1.2331,-1.2334,-1.2364,-1.2344,-1.2346,-1.2347,-1.2348,-1.2414,-1.2415,0,0,0,0,0,0,-1.2226,-1.2232,-1.2276,-1.2278,-1.2249,-1.2273,-1.2277,-1.2288,-1.2309,-1.2311,-1.2296,-1.2296,-1.2328,-1.2331,-1.2335,-1.2362,-1.2346,-1.2348,-1.2349,-1.2413,-1.2414,-1.2415,0,0,0,0,0,0,-1.2224,-1.223,-1.2275,-1.2255,-1.2261,-1.2275,-1.2287,-1.2289,-1.2297,-1.2312,-1.2315,-1.2302,-1.2328,-1.2332,-1.2354,-1.2364,-1.2349,-1.235,-1.2413,-1.2414,-1.2415,-1.2417,0,0,0,0,0,0,-1.2223,-1.2229,-1.2237,-1.2255,-1.2262,-1.2293,-1.2287,-1.229,-1.23,-1.23,-1.2318,-1.2321,-1.2328,-1.2351,-1.2356,-1.2366,-1.2352,-1.2412,-1.2413,-1.2414,-1.2416,-1.2418,-1.242,0,0,0,0,0,-1.222,-1.2237,-1.2238,-1.2243,-1.2273,-1.2294,-1.2298,-1.2305,-1.2301,-1.2309,-1.232,-1.232,-1.2362,-1.2354,-1.2359,-1.2369,-1.2411,-1.2413,-1.2414,-1.2416,-1.2418,-1.242,0,0,0,0,0,0,-1.2219,-1.2239,-1.224,-1.2263,-1.2277,-1.2294,-1.2305,-1.2307,-1.2323,-1.2322,-1.2331,-1.2335,-1.2357,-1.2365,-1.2356,-1.2392,-1.2386,-1.2389,-1.2386,-1.2388,-1.2389,-1.2386,-1.2353,0,0,0,0,0,-1.2222,-1.2237,-1.2254,-1.2272,-1.2279,-1.2291,-1.2301,-1.2305,-1.232,-1.2326,-1.2337,-1.2352,-1.2368,-1.2379,-1.2395,-1.2418,-1.2422,-1.2428,-1.243,-1.2431,-1.2433,-1.2446,-1.2449,-1.242,-1.242,-1.242,0,0,-1.2227,-1.224,-1.2249,-1.2272,-1.2284,-1.2299,-1.2296,-1.2313,-1.2325,-1.2328,-1.235,-1.2359,-1.2376,-1.2398,-1.2409,-1.2406,-1.2442,-1.2433,-1.2434,-1.2435,-1.2448,-1.2451,-1.2453,-1.2421,-1.242,-1.242,0,0,-1.2244,-1.2256,-1.2272,-1.2284,-1.2301,-1.2309,-1.2313,-1.233,-1.2336,-1.2358,-1.2361,-1.2376,-1.2404,-1.2416,-1.2425,-1.2448,-1.245,-1.2454,-1.2462,-1.2475,-1.2477,-1.2479,-1.2487,-1.249,-1.2455,-1.2456,-1.2456,0,-1.2248,-1.2272,-1.228,-1.2297,-1.2308,-1.2312,-1.2329,-1.234,-1.2361,-1.2369,-1.2365,-1.2401,-1.2413,-1.2438,-1.2444,-1.2452,-1.2457,-1.2451,-1.2476,-1.2478,-1.248,-1.2488,-1.2491,-1.2456,-1.2456,-1.2456,-1.2456,0,-1.2276,-1.2293,-1.2305,-1.2325,-1.2337,-1.2354,-1.2365,-1.2376,-1.238,-1.2389,-1.2411,-1.2425,-1.2444,-1.2451,-1.2455,-1.2478,-1.2476,-1.2474,-1.2468,-1.2483,-1.2491,-1.2494,-1.2456,-1.2456,-1.2456,-1.2456,0,0,-1.2293,-1.2318,-1.2322,-1.2332,-1.2351,-1.2365,-1.2382,-1.2401,-1.241,-1.2425,-1.244,-1.2464,-1.2463,-1.2474,-1.248,-1.2492,-1.2509,-1.2489,-1.249,-1.2492,-1.2535,-1.2535,-1.2538,-1.251,-1.2511,-1.2511,-1.2533,0,-1.2312,-1.2343,-1.2351,-1.2377,-1.2393,-1.2398,-1.2413,-1.2427,-1.2436,-1.2451,-1.2461,-1.2477,-1.2475,-1.2482,-1.2493,-1.2504,-1.2517,-1.2503,-1.2524,-1.2525,-1.2519,-1.2542,-1.2542,-1.2562,-1.2536,-1.2537,-1.2537,0,-1.2338,-1.2353,-1.2381,-1.2399,-1.2406,-1.2419,-1.2437,-1.2452,-1.2468,-1.2473,-1.2486,-1.2491,-1.251,-1.2504,-1.253,-1.252,-1.2529,-1.2536,-1.2537,-1.2539,-1.2531,-1.2544,-1.2568,-1.2571,-1.2542,-1.2541,-1.2541,0,-1.2347,-1.2375,-1.2395,-1.2403,-1.2424,-1.2434,-1.2443,-1.2459,-1.247,-1.2486,-1.2493,-1.2511,-1.2521,-1.2535,-1.2545,-1.254,-1.2571,-1.2565,-1.2576,-1.2576,-1.2581,-1.2581,-1.2607,-1.2589,-1.2589,-1.2589,-1.2589,0,-1.2367,-1.2383,-1.2399,-1.2411,-1.243,-1.244,-1.2459,-1.2469,-1.2483,-1.2497,-1.2503,-1.2517,-1.253,-1.2545,-1.2553,-1.2574,-1.2578,-1.2584,-1.2585,-1.2583,-1.2582,-1.2588,-1.2587,-1.2589,-1.2589,-1.2589,-1.2589,0,-1.2379,-1.239,-1.2412,-1.2431,-1.2436,-1.245,-1.2466,-1.2478,-1.2488,-1.2506,-1.2511,-1.2526,-1.2545,-1.2557,-1.258,-1.2586,-1.2608,-1.261,-1.2603,-1.2603,-1.2613,-1.2612,-1.2644,-1.2649,-1.2628,-1.2628,-1.2628,0,-1.239,-1.2403,-1.2424,-1.2434,-1.2443,-1.246,-1.2471,-1.2482,-1.2493,-1.2513,-1.2523,-1.2542,-1.2558,-1.2588,-1.2601,-1.2619,-1.2621,-1.2631,-1.2624,-1.2621,-1.2621,-1.262,-1.2621,-1.2632,-1.2632,-1.2633,-1.2633,0,-1.241,-1.2415,-1.243,-1.2448,-1.2462,-1.2476,-1.2491,-1.2499,-1.2512,-1.2525,-1.2544,-1.2557,-1.2581,-1.26,-1.262,-1.263,-1.2634,-1.2635,-1.2639,-1.2635,-1.263,-1.2633,-1.2605,-1.2634,-1.2634,-1.2634,-1.2634,-1.2634,-1.2422,-1.2434,-1.245,-1.2467,-1.2479,-1.2493,-1.2506,-1.2517,-1.2533,-1.2554,-1.2559,-1.2579,-1.2596,-1.2623,-1.2634,-1.265,-1.2649,-1.2654,-1.2655,-1.2656,-1.2656,-1.2629,-1.2654,-1.2654,-1.2654,-1.2654,-1.2654,0,-1.2441,-1.2452,-1.2468,-1.2488,-1.2502,-1.2505,-1.2521,-1.2533,-1.255,-1.2565,-1.2581,-1.2603,-1.2622,-1.2637,-1.2656,-1.2666,-1.2669,-1.2671,-1.267,-1.2673,-1.2656,-1.2651,-1.2669,-1.2669,-1.2669,-1.2669,-1.2669,-1.2669,-1.2453,-1.2473,-1.248,-1.2506,-1.2517,-1.2536,-1.2546,-1.2559,-1.2571,-1.2595,-1.2611,-1.2621,-1.2636,-1.2657,-1.2674,-1.2678,-1.2685,-1.2687,-1.2691,-1.2675,-1.2674,-1.2672,-1.2667,-1.2688,-1.2688,-1.2706,-1.2706,-1.2707]}]]